<?xml version="1.0"?>
<gpx xmlns="http://www.topografix.com/GPX/1/1" xmlns:xsi="http://www.w3.org/2001/XMLSchema-instance" version="1.1" creator="GPX RubyGem 1.0.0 -- http://dougfales.github.io/gpx/" xsi:schemaLocation="http://www.topografix.com/GPX/1/1 http://www.topografix.com/GPX/1/1/gpx.xsd">
  <metadata>
    <name/>
    <time>2026-05-07T19:55:43+00:00</time>
    <bound minlat="90.0" minlon="180.0" maxlat="-90.0" maxlon="-180.0"/>
  </metadata>
  <trk>
    <name/>
    <trkseg>
      <trkpt lat="45.291998" lon="11.774499">
        <time>1970-01-01T00:00:00+00:00</time>
        <ele>9.0</ele>
      </trkpt>
      <trkpt lat="45.292136" lon="11.774446">
        <time>1970-01-01T00:00:00+00:00</time>
        <ele>9.0</ele>
      </trkpt>
      <trkpt lat="45.292152" lon="11.77444">
        <time>1970-01-01T00:00:00+00:00</time>
        <ele>10.0</ele>
      </trkpt>
      <trkpt lat="45.292324" lon="11.774246">
        <time>1970-01-01T00:00:00+00:00</time>
        <ele>12.0</ele>
      </trkpt>
      <trkpt lat="45.292245" lon="11.774043">
        <time>1970-01-01T00:00:00+00:00</time>
        <ele>15.0</ele>
      </trkpt>
      <trkpt lat="45.292121" lon="11.773814">
        <time>1970-01-01T00:00:00+00:00</time>
        <ele>16.0</ele>
      </trkpt>
      <trkpt lat="45.292103" lon="11.77373">
        <time>1970-01-01T00:00:00+00:00</time>
        <ele>17.0</ele>
      </trkpt>
      <trkpt lat="45.292113" lon="11.773667">
        <time>1970-01-01T00:00:00+00:00</time>
        <ele>18.0</ele>
      </trkpt>
      <trkpt lat="45.292069" lon="11.773563">
        <time>1970-01-01T00:00:00+00:00</time>
        <ele>18.0</ele>
      </trkpt>
      <trkpt lat="45.292045" lon="11.773473">
        <time>1970-01-01T00:00:00+00:00</time>
        <ele>18.0</ele>
      </trkpt>
      <trkpt lat="45.291944" lon="11.773238">
        <time>1970-01-01T00:00:00+00:00</time>
        <ele>17.0</ele>
      </trkpt>
      <trkpt lat="45.291933" lon="11.773174">
        <time>1970-01-01T00:00:00+00:00</time>
        <ele>18.0</ele>
      </trkpt>
      <trkpt lat="45.291961" lon="11.773015">
        <time>1970-01-01T00:00:00+00:00</time>
        <ele>20.0</ele>
      </trkpt>
      <trkpt lat="45.292004" lon="11.772948">
        <time>1970-01-01T00:00:00+00:00</time>
        <ele>22.0</ele>
      </trkpt>
      <trkpt lat="45.292035" lon="11.772936">
        <time>1970-01-01T00:00:00+00:00</time>
        <ele>23.0</ele>
      </trkpt>
      <trkpt lat="45.292213" lon="11.773054">
        <time>1970-01-01T00:00:00+00:00</time>
        <ele>26.0</ele>
      </trkpt>
      <trkpt lat="45.292262" lon="11.773054">
        <time>1970-01-01T00:00:00+00:00</time>
        <ele>27.0</ele>
      </trkpt>
      <trkpt lat="45.292283" lon="11.772986">
        <time>1970-01-01T00:00:00+00:00</time>
        <ele>27.0</ele>
      </trkpt>
      <trkpt lat="45.292322" lon="11.772601">
        <time>1970-01-01T00:00:00+00:00</time>
        <ele>27.0</ele>
      </trkpt>
      <trkpt lat="45.2924" lon="11.77253">
        <time>1970-01-01T00:00:00+00:00</time>
        <ele>29.0</ele>
      </trkpt>
      <trkpt lat="45.292456" lon="11.772522">
        <time>1970-01-01T00:00:00+00:00</time>
        <ele>30.0</ele>
      </trkpt>
      <trkpt lat="45.292752" lon="11.77244">
        <time>1970-01-01T00:00:00+00:00</time>
        <ele>40.0</ele>
      </trkpt>
      <trkpt lat="45.292788" lon="11.772459">
        <time>1970-01-01T00:00:00+00:00</time>
        <ele>41.0</ele>
      </trkpt>
      <trkpt lat="45.292826" lon="11.772552">
        <time>1970-01-01T00:00:00+00:00</time>
        <ele>43.0</ele>
      </trkpt>
      <trkpt lat="45.292894" lon="11.772537">
        <time>1970-01-01T00:00:00+00:00</time>
        <ele>45.0</ele>
      </trkpt>
      <trkpt lat="45.293018" lon="11.772317">
        <time>1970-01-01T00:00:00+00:00</time>
        <ele>49.0</ele>
      </trkpt>
      <trkpt lat="45.293085" lon="11.772229">
        <time>1970-01-01T00:00:00+00:00</time>
        <ele>52.0</ele>
      </trkpt>
      <trkpt lat="45.29313" lon="11.772212">
        <time>1970-01-01T00:00:00+00:00</time>
        <ele>54.0</ele>
      </trkpt>
      <trkpt lat="45.293149" lon="11.772233">
        <time>1970-01-01T00:00:00+00:00</time>
        <ele>55.0</ele>
      </trkpt>
      <trkpt lat="45.293158" lon="11.772288">
        <time>1970-01-01T00:00:00+00:00</time>
        <ele>56.0</ele>
      </trkpt>
      <trkpt lat="45.293145" lon="11.772505">
        <time>1970-01-01T00:00:00+00:00</time>
        <ele>57.0</ele>
      </trkpt>
      <trkpt lat="45.293157" lon="11.772548">
        <time>1970-01-01T00:00:00+00:00</time>
        <ele>58.0</ele>
      </trkpt>
      <trkpt lat="45.293187" lon="11.772548">
        <time>1970-01-01T00:00:00+00:00</time>
        <ele>59.0</ele>
      </trkpt>
      <trkpt lat="45.293425" lon="11.772289">
        <time>1970-01-01T00:00:00+00:00</time>
        <ele>65.0</ele>
      </trkpt>
      <trkpt lat="45.293512" lon="11.772223">
        <time>1970-01-01T00:00:00+00:00</time>
        <ele>68.0</ele>
      </trkpt>
      <trkpt lat="45.293579" lon="11.772207">
        <time>1970-01-01T00:00:00+00:00</time>
        <ele>71.0</ele>
      </trkpt>
      <trkpt lat="45.293674" lon="11.772263">
        <time>1970-01-01T00:00:00+00:00</time>
        <ele>74.0</ele>
      </trkpt>
      <trkpt lat="45.293757" lon="11.772205">
        <time>1970-01-01T00:00:00+00:00</time>
        <ele>77.0</ele>
      </trkpt>
      <trkpt lat="45.293802" lon="11.772192">
        <time>1970-01-01T00:00:00+00:00</time>
        <ele>78.0</ele>
      </trkpt>
      <trkpt lat="45.293882" lon="11.772238">
        <time>1970-01-01T00:00:00+00:00</time>
        <ele>80.0</ele>
      </trkpt>
      <trkpt lat="45.293938" lon="11.772215">
        <time>1970-01-01T00:00:00+00:00</time>
        <ele>81.0</ele>
      </trkpt>
      <trkpt lat="45.294091" lon="11.772076">
        <time>1970-01-01T00:00:00+00:00</time>
        <ele>84.0</ele>
      </trkpt>
      <trkpt lat="45.294256" lon="11.771961">
        <time>1970-01-01T00:00:00+00:00</time>
        <ele>84.0</ele>
      </trkpt>
      <trkpt lat="45.294256" lon="11.771961">
        <time>1970-01-01T00:00:00+00:00</time>
        <ele>84.0</ele>
      </trkpt>
      <trkpt lat="45.294091" lon="11.772076">
        <time>1970-01-01T00:00:00+00:00</time>
        <ele>84.0</ele>
      </trkpt>
      <trkpt lat="45.293938" lon="11.772215">
        <time>1970-01-01T00:00:00+00:00</time>
        <ele>81.0</ele>
      </trkpt>
      <trkpt lat="45.293882" lon="11.772238">
        <time>1970-01-01T00:00:00+00:00</time>
        <ele>80.0</ele>
      </trkpt>
      <trkpt lat="45.293802" lon="11.772192">
        <time>1970-01-01T00:00:00+00:00</time>
        <ele>78.0</ele>
      </trkpt>
      <trkpt lat="45.293757" lon="11.772205">
        <time>1970-01-01T00:00:00+00:00</time>
        <ele>77.0</ele>
      </trkpt>
      <trkpt lat="45.293674" lon="11.772263">
        <time>1970-01-01T00:00:00+00:00</time>
        <ele>74.0</ele>
      </trkpt>
      <trkpt lat="45.293579" lon="11.772207">
        <time>1970-01-01T00:00:00+00:00</time>
        <ele>71.0</ele>
      </trkpt>
      <trkpt lat="45.293512" lon="11.772223">
        <time>1970-01-01T00:00:00+00:00</time>
        <ele>68.0</ele>
      </trkpt>
      <trkpt lat="45.293425" lon="11.772289">
        <time>1970-01-01T00:00:00+00:00</time>
        <ele>65.0</ele>
      </trkpt>
      <trkpt lat="45.293187" lon="11.772548">
        <time>1970-01-01T00:00:00+00:00</time>
        <ele>59.0</ele>
      </trkpt>
      <trkpt lat="45.293157" lon="11.772548">
        <time>1970-01-01T00:00:00+00:00</time>
        <ele>58.0</ele>
      </trkpt>
      <trkpt lat="45.293145" lon="11.772505">
        <time>1970-01-01T00:00:00+00:00</time>
        <ele>57.0</ele>
      </trkpt>
      <trkpt lat="45.293158" lon="11.772288">
        <time>1970-01-01T00:00:00+00:00</time>
        <ele>56.0</ele>
      </trkpt>
      <trkpt lat="45.293149" lon="11.772233">
        <time>1970-01-01T00:00:00+00:00</time>
        <ele>55.0</ele>
      </trkpt>
      <trkpt lat="45.29313" lon="11.772212">
        <time>1970-01-01T00:00:00+00:00</time>
        <ele>54.0</ele>
      </trkpt>
      <trkpt lat="45.293085" lon="11.772229">
        <time>1970-01-01T00:00:00+00:00</time>
        <ele>52.0</ele>
      </trkpt>
      <trkpt lat="45.293018" lon="11.772317">
        <time>1970-01-01T00:00:00+00:00</time>
        <ele>49.0</ele>
      </trkpt>
      <trkpt lat="45.292894" lon="11.772537">
        <time>1970-01-01T00:00:00+00:00</time>
        <ele>45.0</ele>
      </trkpt>
      <trkpt lat="45.292826" lon="11.772552">
        <time>1970-01-01T00:00:00+00:00</time>
        <ele>43.0</ele>
      </trkpt>
      <trkpt lat="45.292788" lon="11.772459">
        <time>1970-01-01T00:00:00+00:00</time>
        <ele>41.0</ele>
      </trkpt>
      <trkpt lat="45.292752" lon="11.77244">
        <time>1970-01-01T00:00:00+00:00</time>
        <ele>40.0</ele>
      </trkpt>
      <trkpt lat="45.292456" lon="11.772522">
        <time>1970-01-01T00:00:00+00:00</time>
        <ele>30.0</ele>
      </trkpt>
      <trkpt lat="45.2924" lon="11.77253">
        <time>1970-01-01T00:00:00+00:00</time>
        <ele>29.0</ele>
      </trkpt>
      <trkpt lat="45.292322" lon="11.772601">
        <time>1970-01-01T00:00:00+00:00</time>
        <ele>27.0</ele>
      </trkpt>
      <trkpt lat="45.292283" lon="11.772986">
        <time>1970-01-01T00:00:00+00:00</time>
        <ele>27.0</ele>
      </trkpt>
      <trkpt lat="45.292262" lon="11.773054">
        <time>1970-01-01T00:00:00+00:00</time>
        <ele>27.0</ele>
      </trkpt>
      <trkpt lat="45.292213" lon="11.773054">
        <time>1970-01-01T00:00:00+00:00</time>
        <ele>26.0</ele>
      </trkpt>
      <trkpt lat="45.292035" lon="11.772936">
        <time>1970-01-01T00:00:00+00:00</time>
        <ele>23.0</ele>
      </trkpt>
      <trkpt lat="45.292004" lon="11.772948">
        <time>1970-01-01T00:00:00+00:00</time>
        <ele>22.0</ele>
      </trkpt>
      <trkpt lat="45.291961" lon="11.773015">
        <time>1970-01-01T00:00:00+00:00</time>
        <ele>20.0</ele>
      </trkpt>
      <trkpt lat="45.291933" lon="11.773174">
        <time>1970-01-01T00:00:00+00:00</time>
        <ele>18.0</ele>
      </trkpt>
      <trkpt lat="45.291944" lon="11.773238">
        <time>1970-01-01T00:00:00+00:00</time>
        <ele>17.0</ele>
      </trkpt>
      <trkpt lat="45.292045" lon="11.773473">
        <time>1970-01-01T00:00:00+00:00</time>
        <ele>18.0</ele>
      </trkpt>
      <trkpt lat="45.292069" lon="11.773563">
        <time>1970-01-01T00:00:00+00:00</time>
        <ele>18.0</ele>
      </trkpt>
      <trkpt lat="45.292113" lon="11.773667">
        <time>1970-01-01T00:00:00+00:00</time>
        <ele>18.0</ele>
      </trkpt>
      <trkpt lat="45.292103" lon="11.77373">
        <time>1970-01-01T00:00:00+00:00</time>
        <ele>17.0</ele>
      </trkpt>
      <trkpt lat="45.292121" lon="11.773814">
        <time>1970-01-01T00:00:00+00:00</time>
        <ele>16.0</ele>
      </trkpt>
      <trkpt lat="45.292245" lon="11.774043">
        <time>1970-01-01T00:00:00+00:00</time>
        <ele>15.0</ele>
      </trkpt>
      <trkpt lat="45.292324" lon="11.774246">
        <time>1970-01-01T00:00:00+00:00</time>
        <ele>12.0</ele>
      </trkpt>
      <trkpt lat="45.292152" lon="11.77444">
        <time>1970-01-01T00:00:00+00:00</time>
        <ele>10.0</ele>
      </trkpt>
      <trkpt lat="45.292136" lon="11.774446">
        <time>1970-01-01T00:00:00+00:00</time>
        <ele>9.0</ele>
      </trkpt>
      <trkpt lat="45.291998" lon="11.774499">
        <time>1970-01-01T00:00:00+00:00</time>
        <ele>9.0</ele>
      </trkpt>
    </trkseg>
  </trk>
</gpx>
